Weather History for KPIL - March, 2014

Change the Weather History Date:

Thursday, March 27, 2014

  Actual Average Record
Temperature  
Mean Temperature 75 °F -  
Max Temperature 82 °F - - ()
Min Temperature 69 °F - - ()
Cooling Degree Days 10    
Growing Degree Days 25 (Base 50)    
Moisture  
Dew Point 70 °F    
Average Humidity 85    
Maximum Humidity 94    
Minimum Humidity 70    
Precipitation  
Precipitation 0.00 in - - ()
Sea Level Pressure  
Sea Level Pressure 29.82 in    
Wind  
Wind Speed 16 mph (SSE)    
Max Wind Speed 24 mph    
Max Gust Speed 32 mph    
Visibility 6 miles    
Events Rain    
T = Trace of Precipitation, MM = Missing Value Source: NWS Daily Summary

Daily Weather History Graph

Daily Weather History Graph

Search for Another Location

Airport or City:

Trip Planner

Search our weather history database for the weather conditions in past years. The results will help you decide how hot, cold, wet, or windy it might be!

Date:

Astronomy

Mar. 27, 2014 Rise Set
Actual Time 7:25 AM CDT 7:43 PM CDT
Civil Twilight 7:02 AM CDT 8:07 PM CDT
Nautical Twilight 6:35 AM CDT 8:34 PM CDT
Astronomical Twilight 6:08 AM CDT 9:01 PM CDT
Moon 4:59 AM CDT (3/27) 4:49 PM CDT (3/27)
Length of Visible Light 13h 04m
Length of Day
12h 18m
Waning Crescent, 13% of the Moon is Illuminated
Mar 27
Waning Crescent
Mar 30
New
Apr 7
First Quarter
Apr 15
Full
Apr 22
Last Quarter

Hourly Weather History & Observations

Time (CDT) Temp. Heat Index Dew Point Humidity Pressure Visibility Wind Dir Wind Speed Gust Speed Precip Events Conditions
12:53 AM 71.1 °F - 66.0 °F 84% 29.93 in 7.0 mi SE 16.1 mph - N/A   Overcast
1:46 AM 71.6 °F - 66.2 °F 83% 29.91 in 7.0 mi SE 13.8 mph - N/A   Overcast
1:53 AM 71.1 °F - 66.9 °F 87% 29.91 in 7.0 mi SE 12.7 mph - N/A   Overcast
2:13 AM 71.6 °F - 66.2 °F 83% 29.89 in 6.0 mi SE 15.0 mph - N/A   Overcast
2:53 AM 71.1 °F - 66.9 °F 87% 29.88 in 6.0 mi SE 12.7 mph - N/A   Overcast
3:51 AM 69.8 °F - 66.2 °F 88% 29.85 in 6.0 mi SE 12.7 mph - 0.00 in   Overcast
3:53 AM 70.0 °F - 66.9 °F 90% 29.85 in 6.0 mi SE 12.7 mph - 0.00 in   Overcast
4:14 AM 69.8 °F - 66.2 °F 88% 29.84 in 6.0 mi SE 12.7 mph - N/A   Overcast
4:32 AM 69.8 °F - 66.2 °F 88% 29.83 in 5.0 mi SE 15.0 mph - N/A   Overcast
4:53 AM 70.0 °F - 66.9 °F 90% 29.83 in 5.0 mi SE 12.7 mph - N/A   Overcast
5:53 AM 71.1 °F - 69.1 °F 93% 29.82 in 6.0 mi SE 12.7 mph 23.0 mph N/A   Overcast
6:10 AM 71.6 °F - 68.0 °F 88% 29.81 in 5.0 mi SE 16.1 mph - N/A   Overcast
6:28 AM 71.6 °F - 69.8 °F 94% 29.80 in 6.0 mi SE 19.6 mph 24.2 mph N/A   Overcast
6:53 AM 72.0 °F - 69.1 °F 91% 29.80 in 6.0 mi SE 19.6 mph 26.5 mph 0.00 in Rain Light Rain
7:01 AM 71.6 °F - 69.8 °F 94% 29.80 in 5.0 mi SSE 21.9 mph 28.8 mph 0.00 in Rain Light Rain
7:09 AM 71.6 °F - 69.8 °F 94% 29.81 in 6.0 mi SSE 23.0 mph 31.1 mph 0.00 in   Mostly Cloudy
7:53 AM 72.0 °F - 69.1 °F 91% 29.81 in 4.0 mi SE 19.6 mph 32.2 mph 0.00 in   Overcast
8:19 AM 71.6 °F - 69.8 °F 94% 29.81 in 4.0 mi SSE 19.6 mph 26.5 mph N/A   Overcast
8:53 AM 73.0 °F - 70.0 °F 90% 29.84 in 4.0 mi SSE 20.7 mph 26.5 mph N/A   Overcast
9:53 AM 73.9 °F - 70.0 °F 87% 29.88 in 5.0 mi South 11.5 mph - N/A   Overcast
10:28 AM 75.2 °F - 71.6 °F 89% 29.86 in 5.0 mi SSE 20.7 mph - N/A   Overcast
10:35 AM 75.2 °F - 71.6 °F 89% 29.85 in 5.0 mi SSE 21.9 mph 27.6 mph N/A   Haze
10:53 AM 77.0 °F - 71.1 °F 82% 29.85 in 5.0 mi SSE 21.9 mph 29.9 mph N/A   Haze
11:46 AM 80.6 °F 84.6 °F 71.6 °F 74% 29.85 in 6.0 mi SSE 17.3 mph 28.8 mph N/A   Haze
11:53 AM 79.0 °F - 70.0 °F 74% 29.85 in 6.0 mi South 24.2 mph 29.9 mph N/A   Haze
12:53 PM 80.1 °F 83.2 °F 70.0 °F 71% 29.83 in 6.0 mi South 19.6 mph 28.8 mph N/A   Haze
1:53 PM 81.0 °F 84.9 °F 71.1 °F 72% 29.81 in 6.0 mi South 21.9 mph 29.9 mph N/A   Haze
2:37 PM 80.6 °F 83.9 °F 69.8 °F 70% 29.80 in 6.0 mi South 21.9 mph 32.2 mph N/A   Haze
2:53 PM 81.0 °F 84.9 °F 71.1 °F 72% 29.79 in 6.0 mi South 23.0 mph 28.8 mph N/A   Haze
3:53 PM 81.0 °F 84.9 °F 71.1 °F 72% 29.77 in 6.0 mi South 16.1 mph 29.9 mph N/A   Haze
4:53 PM 80.1 °F 83.6 °F 71.1 °F 74% 29.78 in 6.0 mi South 17.3 mph 27.6 mph N/A   Haze
5:53 PM 78.1 °F - 71.1 °F 79% 29.77 in 6.0 mi South 16.1 mph 21.9 mph N/A   Haze
6:53 PM 77.0 °F - 71.1 °F 82% 29.76 in 6.0 mi South 13.8 mph 21.9 mph N/A   Haze
7:51 PM 75.2 °F - 71.6 °F 89% 29.77 in 6.0 mi SSE 10.4 mph - N/A   Overcast
7:53 PM 75.9 °F - 72.0 °F 87% 29.77 in 6.0 mi SSE 12.7 mph - N/A   Overcast
8:05 PM 75.2 °F - 71.6 °F 89% 29.78 in 6.0 mi SSE 10.4 mph - N/A   Overcast
8:12 PM 75.2 °F - 71.6 °F 89% 29.78 in 6.0 mi South 12.7 mph - N/A   Overcast
8:51 PM 75.2 °F - 71.6 °F 89% 29.79 in 6.0 mi South 12.7 mph - N/A   Overcast
8:53 PM 75.0 °F - 72.0 °F 90% 29.79 in 6.0 mi South 11.5 mph - N/A   Overcast
9:53 PM 75.0 °F - 72.0 °F 90% 29.80 in 6.0 mi South 12.7 mph - N/A   Overcast
10:53 PM 75.0 °F - 72.0 °F 90% 29.82 in 5.0 mi South 9.2 mph - N/A   Overcast
11:53 PM 75.0 °F - 72.0 °F 90% 29.82 in 5.0 mi South 10.4 mph - N/A   Overcast